Погода Гышгы

Погода Гышгы : погода сейчас, прогноз погоды и архив. Всё, что Вы хотите узнать о погоде Гышгы!

Поиск расширенной информации на нашем сайте:

Другие новости

Новости СМИ2

Главная страница сайта

Новости сайта

03.07.2017

Напоминаем, что на нашем специализированном сайте Метеоцентр.Азия вы можете получить высокодетализированные автоматические прогнозы погоды по пунктам России, СНГ и мира в авиационном формате (включающие направление и скорость ветра, видимость, явления погоды, количество и форму облачности, нижнюю и верхнюю границу облачности).

Рекомендуем: Paprika паприка пицца вегетарианская pizza vegetariana.

Погода Гышгы - сегодня

Время (UTC), дата Ветер
(°,м/с) 
Видим.   Явления Облачность Т
(°С)
Тd
(°С)
f(%) Тe
(°С)
Pmin
(гПа)
dP
(гПа)
Po
(мм)
O2
(г/м3)
Тmin Tmax R s Состояние
почвы
09 18.07.17 050 (СВ) 4000 м    ясно 
+32.7 +0.6 13 +33  1007.5  -2.9  705  253           
12 18.07.17 060 (СВ) 4000 м    ясно 
+33.1 -0.5 12 +33  1006.2  -1.1  704  253           
15 18.07.17 040 (СВ) 4000 м    ясно 
+30.6 -2.7 11 +31  1007.1  0.2  704  255    +33.3       
18 18.07.17 020 (С) 4000 м    ясно 
+26.3 -2.7 15 +26  1009.4  1.3             
21 18.07.17 010 (С) 4000 м    ясно 
+22 -0.7 22 +22  1010.5  705  263           
00 19.07.17 240 (ЮЗ) 4000 м    ясно 
+16.6 -0.2 32 +17  1011.9  0.2  705  268           
03 19.07.17 //0 (С) //  н/о    н/о 
                мокрая 
06 19.07.17 030 (СВ) 4000 м    ясно 
+29.3 +3 19 +29  1009.2  -0.2             
09 19.07.17 040 (СВ) 4000 м    ясно 
+33.2 -0.2 12 +33      750  270           
12 19.07.17 020 (С) 4000 м    ясно 
+34.2 -2.7 9 +34  1003.8  -2.1  703  252           
15 19.07.17 030 (СВ) 4000 м    ясно 
+32.9 -4.7 9 +33  1003.6  -0.5  702  253    +34.5       
18 19.07.17 080 (В) 4000 м    ясно 
+28.4 -1.4 14 +28  1005  0.3  702  256    +34.5       
21 19.07.17 100 (В) 4000 м    ясно 
+23.9 +5 29 +24  1006.4  0.4  703  260           
00 20.07.17 110 (В) 4000 м    ясно 
+20.8 +5.8 38 +21  1006.9  -0.2  703  262           
03 20.07.17 230 (ЮЗ) 4000 м    ясно 
+20.7 +4.1 34 +21  1007.3  0.3  703  263           
06 20.07.17 030 (СВ) 4000 м    ясно 
+29.6 +4.1 20 +30  1005.6  0.4  703  255  +18.4         
09 20.07.17 010 (С) 4000 м    ясно 
+33.6 +0 12 +34  1003.2  -1.4  702  252           
12 20.07.17 020 (С) 4000 м    ясно 
+34.6 -1.9 10 +35  1001.7  -1.3  701  251           
15 20.07.17 020 (С) 4000 м    ясно 
+32.7 -1.2 11 +33  1001.4  -0.6  701  252    +35.2       
18 20.07.17 040 (СВ) 4000 м    ясно 
+28.5 -0.5 15 +29  1003.4  701  256    +35.2       
21 20.07.17 060 (СВ) 4000 м    ясно 
+25.1 +1.9 22 +25  1004.1  -0.1  701  258           
00 21.07.17 230 (ЮЗ) 4000 м    ясно 
+19.6 +1.7 30 +21  1006.3  0.8  702  264           
03 21.07.17 270 (З) 4000 м    ясно 
+19.6 +2.7 33 +21  1007.7  1.3  703  264           
06 21.07.17 070 (В) 4000 м    ясно 
+31 +2.7 17 +31  1004.9  703  254  +18.1         
09 21.07.17 040 (СВ) 4000 м    ясно 
+35.4 +0.4 11 +35  1002.3  -1.6  702  250           
Время (UTC), дата Ветер
(°,м/с) 
Видим.   Явления Облачность Т
(°С)
Тd
(°С)
f(%) Тe
(°С)
Pmin
(гПа)
dP
(гПа)
Po
(мм)
O2
(г/м3)
Тmin Tmax R s Состояние
почвы

Для получения пояснительной информации подведите курсор к названию столбца.

ПОГОДА Гышгы - архив

Всё, что Вы хотите узнать о погоде Гышгы - удобно и подробно!

Выберите нужную дату (начиная с 1 января 2015* года) и нажмите кнопку "Найти".
Будут отображены архивные сводки погоды по пункту Гышгы, начиная с указанной даты.


Отображать данные в формате CSV (для использования в таблицах Excel)


Внимание! Наш архив погоды предназначен исключительно для личного некоммерческого использования в познавательных целях. Если Вам необходимы официальные справки о состоянии погоды (для производственных, юридических, коммерческих и т.п. целей), обращайтесь в органы Росгидромета.

*Примечание: данная дата относится к архиву по метеостанциям СССР (Россия, СНГ, Балтия).
Архив по метеостанциям Зарубежной Европы и Азии (кроме Китая) хранится 10 дней, по другим регионам земного шара (Китай, Африка, Америка, Австралия, Океания) - 1 день.

Гышгы - район местоположения метеостанции


Название, широта, долгота, высота метеостанции:
Гышгы (Кушка) 35.3°ш. 62.3°д. 625 м над ур. моря [Туркменистан]

Дополнительная информация

В oтличие oт бoльшинства пoгoдных сайтoв мы публикуем пoдрoбную метеoинфoрмацию в детальнoм прoфессиoнальнoм фoрмате.

Характеристики температуры и влажнoсти вoздуха измеряются на высoте 2 м в тени вдали oт зданий и деревьев.
Скoрoсть ветра измеряется на высoте 10 м (на урoвне рoста челoвека скoрoсть ветра ниже в 1.5-2 раза). Если метеoстанция нахoдится в гoрoде или в лесу, тo скoрoсть ветра занижена на 2-4 м/с пo сравнению с oткрытым местoм. Скoрoсть ветра над акватoриями крупных рек и oзёр, а также на вершинах хoлмoв на 2-5 м/с выше, чем в oбычных услoвиях.
Атмoсфернoе давление в разных тoчках местнoсти мoжет значительнo oтличаться oт давления на метеoстанции, в зависимoсти oт услoвий рельефа (при пoдъёме на 10 м давление пoнижается примернo на 1 мм рт.ст.).